CW6888 Weather Reports


Display with metric or nautical units.
time (UTC)temp
F
wind
direction
speed
MPH
gust
MPH
rain 1hr
in
rain 24hr
in
rain mn
in
humidity
%
barometer
mb
20260904172826 82 13 2.0 5.0 0.00 0.11 0.00 77 1014.9
20260904171838 81 42 3.0 8.0 0.00 0.11 0.00 78 1015.0
20260904170832 81 80 4.0 7.0 0.00 0.11 0.00 76 1015.1
20260904165820 81 51 5.0 12.0 0.00 0.11 0.00 76 1015.0
20260904164837 80 48 2.0 9.0 0.00 0.11 0.00 77 1015.1
20260904163814 80 258 2.0 5.0 0.00 0.11 0.00 79 1015.2
20260904162846 79 115 2.0 8.0 0.00 0.11 0.00 77 1015.2
20260904161821 79 13 4.0 9.0 0.00 0.11 0.00 78 1015.4
20260904160817 79 32 2.0 12.0 0.00 0.11 0.00 80 1015.4
20260904155828 78 42 6.0 12.0 0.00 0.12 0.00 79 1015.3
20260904154817 78 55 4.0 8.0 0.00 0.12 0.00 80 1015.5
20260904153833 78 35 4.0 13.0 0.00 0.12 0.00 78 1015.5
20260904152818 78 45 3.0 8.0 0.00 0.12 0.00 79 1015.6
20260904151813 78 66 6.0 10.0 0.00 0.12 0.00 79 1015.5
20260904150829 77 42 6.0 11.0 0.00 0.12 0.00 81 1015.5
20260904145818 77 67 5.0 10.0 0.00 0.12 0.00 82 1015.6
20260904144814 77 41 5.0 11.0 0.00 0.12 0.00 82 1015.5
20260904143829 76 37 2.0 9.0 0.00 0.12 0.00 82 1015.4
20260904142825 76 42 3.0 10.0 0.00 0.12 0.00 83 1015.5
20260904141813 76 355 3.0 11.0 0.00 0.12 0.00 83 1015.4
20260904140828 76 21 6.0 11.0 0.00 0.12 0.00 83 1015.7
20260904135820 75 44 6.0 13.0 0.00 0.12 0.00 83 1015.6
20260904134818 75 325 6.0 11.0 0.00 0.12 0.00 83 1015.3
20260904133814 74 88 6.0 13.0 0.00 0.12 0.00 83 1015.2
20260904132831 74 23 3.0 9.0 0.00 0.12 0.00 84 1015.3
20260904131827 74 334 3.0 9.0 0.00 0.12 0.00 85 1015.3
20260904130813 74 43 5.0 11.0 0.00 0.12 0.00 85 1015.5
20260904125831 73 48 5.0 11.0 0.00 0.12 0.00 85 1015.4
20260904124848 73 344 7.0 13.0 0.00 0.12 0.00 86 1015.5
20260904123815 73 5 6.0 11.0 0.00 0.12 0.00 86 1015.5
20260904122831 73 27 6.0 11.0 0.00 0.12 0.00 86 1015.6
20260904121827 72 26 6.0 10.0 0.00 0.12 0.00 86 1015.7
20260904120824 72 19 5.0 12.0 0.00 0.12 0.00 86 1015.6
20260904115829 71 11 4.0 8.0 0.00 0.12 0.00 88 1015.5
20260904114827 70 32 4.0 8.0 0.00 0.12 0.00 90 1015.3
20260904113823 69 38 1.0 3.0 0.00 0.12 0.00 91 1015.3
20260904112840 69 37 0.0 2.0 0.00 0.12 0.00 91 1015.2
20260904111856 68 38 1.0 5.0 0.00 0.12 0.00 92 1015.1
20260904110831 68 29 1.0 4.0 0.00 0.12 0.00 93 1014.9
20260904105823 68 123 1.0 3.0 0.00 0.67 0.00 93 1014.7
20260904104834 68 155 0.0 2.0 0.00 0.67 0.00 92 1014.6
20260904103821 68 155 0.0 1.0 0.00 0.67 0.00 93 1014.7
20260904102817 69 155 0.0 1.0 0.00 0.67 0.00 93 1014.8
20260904101813 69 155 0.0 2.0 0.00 0.67 0.00 93 1014.6
20260904100829 69 155 0.0 3.0 0.00 0.67 0.00 93 1014.8
20260904095818 69 112 0.0 2.0 0.00 0.69 0.00 93 1014.9
20260904094834 69 112 0.0 0.0 0.00 0.69 0.00 93 1014.6
20260904093820 69 114 0.0 0.0 0.00 0.69 0.00 93 1014.6
20260904092816 69 114 0.0 0.0 0.00 0.69 0.00 93 1014.4
20260904091832 69 114 0.0 0.0 0.00 0.69 0.00 93 1014.6
20260904090827 69 114 0.0 0.0 0.00 0.69 0.00 93 1014.5
20260904085816 69 114 0.0 0.0 0.00 0.73 0.00 92 1014.7
20260904084832 69 114 0.0 0.0 0.00 0.73 0.00 92 1014.7
20260904083828 69 114 0.0 0.0 0.00 0.73 0.00 92 1014.8
20260904082844 69 114 0.0 1.0 0.00 0.73 0.00 92 1014.9
20260904081838 70 114 1.0 1.0 0.00 0.73 0.00 92 1014.8
20260904080836 70 114 0.0 0.0 0.00 0.73 0.00 92 1014.7
20260904075815 69 113 0.0 1.0 0.00 0.73 0.00 92 1014.6
20260904074841 70 113 0.0 2.0 0.00 0.73 0.00 92 1014.6
20260904073827 70 114 1.0 2.0 0.00 0.73 0.00 91 1014.5
20260904072844 70 114 0.0 1.0 0.00 0.73 0.00 91 1014.4
20260904071819 70 114 0.0 0.0 0.00 0.73 0.00 91 1014.2
20260904070836 70 114 0.0 0.0 0.00 0.73 0.00 91 1014.0
20260904065822 70 114 0.0 0.0 0.00 0.73 0.00 91 1014.1
20260904064849 71 109 0.0 0.0 0.00 0.73 0.00 90 1013.9
20260904063813 71 109 0.0 2.0 0.00 0.73 0.00 90 1013.8
20260904062829 71 94 0.0 0.0 0.00 0.73 0.00 89 1013.7
20260904061825 71 94 0.0 1.0 0.00 0.73 0.00 88 1013.5
20260904060837 72 94 0.0 1.0 0.00 0.73 0.00 86 1013.7
20260904055825 72 94 1.0 2.0 0.00 0.73 0.00 85 1013.5
20260904054821 72 74 1.0 2.0 0.00 0.73 0.00 83 1013.6
20260904053816 72 68 0.0 3.0 0.00 0.73 0.00 85 1013.8
20260904052832 72 69 1.0 5.0 0.00 0.73 0.00 85 1013.8
20260904051830 72 39 1.0 4.0 0.00 0.73 0.00 86 1013.7
20260904050816 73 91 0.0 3.0 0.00 0.73 0.00 85 1013.7
20260904045825 73 91 1.0 5.0 0.00 0.73 0.00 86 1013.8
20260904044821 73 155 0.0 2.0 0.00 0.73 0.00 86 1013.9
20260904043817 74 155 0.0 5.0 0.00 0.73 0.00 86 1014.2
20260904042830 74 91 2.0 5.0 0.00 0.73 0.00 86 1014.2
20260904041825 75 192 1.0 5.0 0.01 0.73 0.00 85 1014.4
20260904040841 75 26 4.0 11.0 0.01 0.73 0.00 87 1014.8
20260904035830 75 65 6.0 13.0 0.01 0.73 0.73 90 1015.1
20260904034818 75 343 0.0 9.0 0.01 0.73 0.73 91 1015.2
20260904033814 75 38 0.0 7.0 0.11 0.73 0.73 92 1015.5
20260904032832 75 43 0.0 2.0 0.11 0.73 0.73 92 1015.5
20260904031826 75 140 0.0 0.0 0.10 0.72 0.72 92 1015.8
20260904030822 75 140 0.0 0.0 0.10 0.72 0.72 92 1015.8
20260904025830 75 140 0.0 2.0 0.10 0.72 0.72 91 1015.7
20260904024826 75 137 2.0 5.0 0.10 0.72 0.72 90 1015.4
20260904023842 75 175 0.0 0.0 0.00 0.62 0.62 90 1015.5
20260904022857 76 175 0.0 0.0 0.00 0.62 0.62 90 1015.5
20260904021823 76 175 0.0 0.0 0.00 0.62 0.62 89 1015.4
20260904020818 77 175 0.0 0.0 0.00 0.62 0.62 88 1015.4
20260904015827 77 175 0.0 0.0 0.00 0.62 0.62 87 1015.3
20260904014823 77 175 0.0 0.0 0.00 0.62 0.62 87 1015.1
20260904013818 77 175 0.0 0.0 0.00 0.62 0.62 87 1014.9
20260904012814 77 175 0.0 0.0 0.00 0.62 0.62 87 1014.8
20260904011850 77 175 0.0 0.0 0.00 0.62 0.62 87 1014.9
20260904010825 77 175 0.0 0.0 0.00 0.62 0.62 87 1015.1
20260904005815 77 175 0.0 0.0 0.00 0.62 0.62 87 1015.3
20260904004826 77 175 0.0 0.0 0.00 0.62 0.62 87 1015.4
20260904003813 77 175 0.0 0.0 0.00 0.62 0.62 87 1015.4
20260904002825 77 175 0.0 0.0 0.00 0.62 0.62 87 1015.5
20260904001820 78 175 0.0 0.0 0.00 0.62 0.62 86 1015.6
20260904000817 78 175 0.0 0.0 0.00 0.62 0.62 85 1015.7
20260903235825 79 175 0.0 0.0 0.00 0.62 0.62 84 1015.5
20260903234822 79 175 0.0 0.0 0.00 0.62 0.62 84 1015.4
20260903233818 79 175 0.0 0.0 0.00 0.62 0.62 83 1015.0
20260903232854 80 171 0.0 0.0 0.00 0.62 0.62 83 1014.8
20260903231829 80 171 0.0 0.0 0.00 0.62 0.62 82 1015.0
20260903230847 81 171 0.0 0.0 0.00 0.62 0.62 82 1014.9
20260903225814 81 171 0.0 0.0 0.00 0.62 0.62 81 1015.1
20260903224829 82 171 0.0 0.0 0.00 0.62 0.62 80 1015.0
20260903223816 82 171 0.0 0.0 0.00 0.62 0.62 79 1014.7
20260903222813 83 171 0.0 3.0 0.00 0.62 0.62 78 1014.7
20260903221859 84 171 3.0 7.0 0.00 0.62 0.62 76 1014.6
20260903220824 85 173 1.0 4.0 0.00 0.62 0.62 75 1014.5
20260903215842 85 169 2.0 4.0 0.00 0.62 0.62 74 1014.6
20260903214836 85 159 1.0 5.0 0.00 0.62 0.62 75 1014.6
20260903213823 84 189 1.0 5.0 0.00 0.62 0.62 75 1014.8
20260903212819 85 208 2.0 6.0 0.00 0.62 0.62 73 1014.6
20260903211814 85 182 1.0 4.0 0.00 0.62 0.62 72 1014.5
20260903210831 85 200 2.0 7.0 0.00 0.62 0.62 72 1014.6
20260903205819 85 180 2.0 8.0 0.00 0.62 0.62 73 1014.5
20260903204816 85 165 1.0 5.0 0.00 0.62 0.62 74 1014.6
20260903203832 85 177 2.0 6.0 0.00 0.62 0.62 71 1014.7
20260903202844 85 135 3.0 8.0 0.00 0.62 0.62 70 1014.8
20260903201838 85 202 3.0 6.0 0.00 0.62 0.62 71 1014.9
20260903200825 85 189 2.0 7.0 0.00 0.62 0.62 70 1015.1
20260903195815 85 242 3.0 8.0 0.00 0.62 0.62 71 1015.1
20260903194859 85 63 1.0 4.0 0.00 0.62 0.62 73 1015.3
20260903193825 85 216 4.0 9.0 0.00 0.62 0.62 69 1015.5
20260903192821 85 151 2.0 7.0 0.00 0.62 0.62 71 1015.5
20260903191818 84 153 3.0 9.0 0.00 0.62 0.62 70 1015.7
20260903190831 84 112 3.0 8.0 0.00 0.62 0.62 73 1015.8
20260903185821 84 132 2.0 6.0 0.00 0.66 0.62 73 1015.7
20260903184817 84 175 1.0 5.0 0.00 0.66 0.62 75 1015.8
20260903183832 84 156 1.0 6.0 0.00 0.66 0.62 75 1015.9
20260903182848 84 115 1.0 6.0 0.00 0.66 0.62 76 1015.9
20260903181815 83 183 3.0 6.0 0.00 0.66 0.62 78 1015.9
20260903180902 83 331 3.0 8.0 0.00 0.66 0.62 80 1016.1
20260903175831 82 195 3.0 8.0 0.00 0.81 0.62 81 1016.3
20260903174827 81 142 2.0 7.0 0.00 0.81 0.62 83 1016.3
20260903173842 80 117 4.0 8.0 0.00 0.81 0.62 84 1016.7